Location: Unspecified
(49.9820°N, 20.4363°E)
Time: 14:33:48
(UTC+02:00)

ISS - Pass Details

Date: 24 May 2018
Orbit: 402 x 407 km, 51.6° (Epoch: 22 May)

Event Time Altitude Azimuth Distance (km) Brightness Sun altitude
Rises 01:21:27 0° 286° (WNW) 2,321 0.1 -18.6°
Reaches altitude 10° 01:23:32 10° 286° (WNW) 1,460 -1.0 -18.5°
Maximum altitude 01:26:48 78° 201° (SSW) 417 -4.0 -18.4°
Enters shadow 01:27:52 39° 121° (ESE) 616 -3.1 -18.3°
